Tracking 32963 objects as of 22-Jan-2026
HD Live streaming from Space Station
objects crossing your sky now

DELTA 1 DEB

Track DELTA 1 DEB now!
10-day predictions


NORAD ID: 7014
Int'l Code: 1973-086E
Perigee: 874.9 km
Apogee: 1,484.3 km
Inclination: 101.7 °
Period: 108.8 minutes
Semi major axis: 7550 km
RCS: 0.109 m2 (medium)
Launch date: November 6, 1973
Source: United States (US)
Launch site: AIR FORCE WESTERN TEST RANGE (AFWTR)

Note: This is SATELLITE DEBRIS
Your satellite tracking list
Your tracking list is empty




NASA's NSSDC Master Catalog

Two Line Element Set (TLE):
1  7014U 73086E   26021.42906102  .00000160  00000-0  33401-3 0  9992
2  7014 101.7140  71.8593 0403558 247.3939 108.4015 13.23220093516852
Source of the keplerian elements: AFSPC